Location: *
(33.8649°S, 62.1526°E)
Time: 08:47:46
(UTC+00:00)

N. Korean satellite - Visible Passes

Search period start: 23 April 2021 00:00
Search period end: 03 May 2021 00:00
Orbit: 452 x 499 km, 97.2° (Epoch: 22 April)

Date Brightness Start Highest point End Pass type
(mag) Time Alt. Az. Time Alt. Az. Time Alt. Az.
23 Apr 8.6 01:33:47 10° WNW 01:33:58 10° WNW 01:33:58 10° WNW visible
24 Apr 8.0 01:05:00 10° NNW 01:06:32 20° NW 01:06:32 20° NW visible
24 Apr 9.6 14:07:59 10° SSW 14:10:09 15° WSW 14:12:18 10° WNW visible
25 Apr 8.0 00:37:30 10° N 00:39:06 26° N 00:39:06 26° N visible
25 Apr 8.5 13:39:59 10° S 13:43:18 33° WSW 13:46:36 10° NW visible
26 Apr 9.0 00:10:42 10° NE 00:11:41 17° NE 00:11:41 17° NE visible
27 Apr 8.5 01:17:40 10° NW 01:18:25 14° NW 01:18:25 14° NW visible
27 Apr 10.0 14:21:18 10° SW 14:22:11 11° WSW 14:23:04 10° W visible
28 Apr 8.2 00:49:44 10° N 00:51:00 21° NNW 00:51:00 21° NNW visible
28 Apr 9.2 13:52:24 10° SSW 13:55:22 23° WSW 13:58:19 10° NW visible
29 Apr 8.8 00:22:37 10° NNE 00:23:35 18° NNE 00:23:35 18° NNE visible
01 May 8.5 01:02:04 10° NNW 01:02:56 16° NNW 01:02:56 16° NNW visible
01 May 9.6 14:04:58 10° SSW 14:07:22 17° WSW 14:09:46 10° WNW visible
02 May 8.7 00:34:37 10° N 00:35:31 17° N 00:35:31 17° N visible
02 May 8.3 13:37:03 10° S 13:40:29 37° WSW 13:43:53 10° NW visible
